Nashville, TN

6:08 AM CST on January 24, 2018 (GMT -0600)
Nashville International

Weather History for KBNA - November, 2013

Change the Weather History Date:

Saturday, November 9, 2013

  Actual Average Record
Temperature  
Mean Temperature 46 °F 52 °F  
Max Temperature 61 °F 63 °F 81 °F (2005)
Min Temperature 31 °F 42 °F 22 °F (1991)
Degree Days  
Heating Degree Days 19    
Month to date heating degree days 113  
Since 1 July heating degree days 292  
Cooling Degree Days 0    
Month to date cooling degree days 0  
Year to date cooling degree days 1730  
Moisture  
Dew Point 32 °F    
Average Humidity 60    
Maximum Humidity 85    
Minimum Humidity 35    
Precipitation  
Precipitation 0.00 in 0.12 in 2.58 in (1990)
Month to date precipitation 0.35 1.11  
Year to date precipitation 44.72 39.81  
Snow  
Snow 0.00 in - 0.00 in (2002)
Month to date snowfall 0.0  
Since 1 July snowfall 0.0  
Since 1 September snowfall 0.0  
Snow Depth 0.00 in    
Sea Level Pressure  
Sea Level Pressure 30.26 in    
Wind  
Wind Speed 5 mph (SSW)    
Max Wind Speed 16 mph    
Max Gust Speed 21 mph    
Visibility 10 miles    
Events      
T = Trace of Precipitation, MM = Missing Value Source: NWS Daily Summary

Daily Weather History Graph

Daily Weather History Graph

Search for Another Location

Airport or City:

Trip Planner

Search our weather history database for the weather conditions in past years. The results will help you decide how hot, cold, wet, or windy it might be!

Date:

Astronomy

Nov. 09, 2013 Rise Set
Actual Time 6:17 AM CST 4:43 PM CST
Civil Twilight 5:50 AM CST 5:10 PM CST
Nautical Twilight 5:19 AM CST 5:40 PM CST
Astronomical Twilight 4:49 AM CST 6:10 PM CST
Moon 11:56 AM CST (11/9) 11:10 PM CST (11/9)
Length of Visible Light 11h 19m
Length of Day
10h 25m
Waxing Crescent, 44% of the Moon is Illuminated
Nov 9
Waxing Crescent
Nov 9
First Quarter
Nov 17
Full
Nov 25
Last Quarter
Dec 2
New

Hourly Weather History & Observations

Time (CST) Temp. Windchill Dew Point Humidity Pressure Visibility Wind Dir Wind Speed Gust Speed Precip Events Conditions
12:53 AM 37.0 °F 34.5 °F 30.0 °F 76% 30.27 in 10.0 mi SE 3.5 mph - N/A   Scattered Clouds
1:53 AM 34.0 °F - 28.9 °F 82% 30.27 in 10.0 mi Calm Calm - N/A   Partly Cloudy
2:53 AM 32.0 °F 26.4 °F 28.0 °F 85% 30.27 in 10.0 mi SSE 5.8 mph - N/A   Partly Cloudy
3:53 AM 32.0 °F 27.5 °F 28.0 °F 85% 30.25 in 10.0 mi South 4.6 mph - N/A   Partly Cloudy
4:53 AM 32.0 °F 28.7 °F 27.0 °F 82% 30.26 in 10.0 mi South 3.5 mph - N/A   Partly Cloudy
5:53 AM 34.0 °F 31.0 °F 27.0 °F 75% 30.27 in 10.0 mi South 3.5 mph - N/A   Scattered Clouds
6:53 AM 36.0 °F 33.3 °F 28.0 °F 73% 30.29 in 10.0 mi South 3.5 mph - N/A   Mostly Cloudy
7:53 AM 43.0 °F - 30.9 °F 62% 30.30 in 10.0 mi Calm Calm - N/A   Mostly Cloudy
8:53 AM 50.0 °F - 32.0 °F 50% 30.30 in 10.0 mi South 6.9 mph - N/A   Mostly Cloudy
9:53 AM 53.1 °F - 27.0 °F 37% 30.30 in 10.0 mi SW 5.8 mph - N/A   Mostly Cloudy
10:53 AM 54.0 °F - 28.9 °F 38% 30.30 in 10.0 mi SSW 6.9 mph - N/A   Mostly Cloudy
11:53 AM 57.0 °F - 30.9 °F 37% 30.27 in 10.0 mi SSW 12.7 mph 19.6 mph N/A   Mostly Cloudy
12:53 PM 59.0 °F - 32.0 °F 36% 30.24 in 10.0 mi SSW 11.5 mph - N/A   Mostly Cloudy
1:53 PM 59.0 °F - 32.0 °F 36% 30.22 in 10.0 mi SSW 10.4 mph - N/A   Scattered Clouds
2:53 PM 60.1 °F - 32.0 °F 35% 30.21 in 10.0 mi SSW 11.5 mph 18.4 mph N/A   Scattered Clouds
3:53 PM 59.0 °F - 32.0 °F 36% 30.22 in 10.0 mi SSW 9.2 mph - N/A   Scattered Clouds
4:53 PM 55.0 °F - 33.1 °F 43% 30.22 in 10.0 mi SSW 4.6 mph - N/A   Scattered Clouds
5:53 PM 55.0 °F - 33.1 °F 43% 30.25 in 10.0 mi SSW 5.8 mph - N/A   Scattered Clouds
6:53 PM 50.0 °F - 35.1 °F 57% 30.25 in 10.0 mi SSW 5.8 mph - N/A   Scattered Clouds
7:53 PM 50.0 °F - 37.0 °F 61% 30.27 in 10.0 mi South 8.1 mph - N/A   Mostly Cloudy
8:53 PM 50.0 °F - 36.0 °F 59% 30.26 in 10.0 mi SSW 3.5 mph - N/A   Mostly Cloudy
9:53 PM 48.0 °F - 37.0 °F 66% 30.25 in 10.0 mi South 3.5 mph - N/A   Scattered Clouds
10:53 PM 48.9 °F - 36.0 °F 61% 30.26 in 10.0 mi Calm Calm - N/A   Scattered Clouds
11:53 PM 46.9 °F - 36.0 °F 66% 30.25 in 10.0 mi Calm Calm - N/A   Clear